Regional Weather Roundup
Issued by NWS

Home | Current Version | Previous Version | Text Only | Print | Product List | Glossary Off
Versions: 1 2 3 4 5 6 7 8 9 10 11 12 13 14 15 16 17 18 19 20 21 22 23 24 25 26 27 28 29 30 31 32 33 34 35 36 37 38 39 40 41 42 43 44 45 46 47 48 49 50

204
ASUS45 KABQ 162001
RWRNM
NEW MEXICO REGIONAL WEATHER ROUNDUP
NATIONAL WEATHER SERVICE ALBUQUERQUE NM
100 PM MST SAT DEC 16 2017

NOTE: "FAIR" MEANS FEW OR NO CLOUDS BELOW 12,000 FEET AGL WITH NO
       SIGNIFICANT WEATHER OR OBSTRUCTIONS TO VISION.

      THIS PRODUCT IS RELEASED AS TWO VERSIONS.  ONE VERSION NEAR
      THE TOP OF THE HOUR CONTAINING PRELIMINARY DATA FROM ALBUQUERQUE
      AND OTHER STATIONS.  A FINAL VERSION WITH ADDITIONAL DATA IS
      ISSUED ABOUT 10 MINUTES AFTER THE HOUR.

NMZ501-503-504-510>518-162100-
NORTHWEST PLATEAU/NORTHCENTRAL MOUNTAINS

CITY           SKY/WX    TMP DP  RH WIND       PRES   REMARKS
FARMINGTON     FAIR      46  11  24 SE3       29.76F
LOS ALAMOS     FAIR      41  10  28 SE8       29.78F
SANTA FE       FAIR      43  16  33 W14       29.76F
TAOS           FAIR      45   4  18 N3        29.78F

$$
NMZ402-403-502-505>509-162100-
WESTCENTRAL MOUNTAINS/SOUTHWEST MOUNTAINS

CITY           SKY/WX    TMP DP  RH WIND       PRES   REMARKS
GALLUP         FAIR      50   0  12 SW12      29.79F
GRANTS         FAIR      47  -5  11 CALM      29.80F
SILVER CITY    FAIR      48  18  30 CALM      29.86F

$$
NMZ407-409-411-412-162100-
SOUTHERN DESERTS

CITY           SKY/WX    TMP DP  RH WIND       PRES   REMARKS
DEMING         FAIR      50  23  34 SW5       29.85F
LAS CRUCES     FAIR      53  24  32 S9        29.86F
HOLLOMAN AFB   FAIR      53  21  28 S8        29.87F
ALAMOGORDO     FAIR      50  19  29 SW12G20   29.86F
T OR C         FAIR      49  21  33 SW12      29.83F

$$
NMZ519>523-162100-
CENTRAL VALLEYS/CENTRAL HIGHLANDS

CITY           SKY/WX    TMP DP  RH WIND       PRES   REMARKS
ALBUQUERQUE    FAIR      41  15  35 S9        29.81F
DOUBLE EAGLE   MOSUNNY   41  16  36 SE9       29.81F
MORIARTY ARPT  FAIR      51  14  23 CALM      29.76F
CLINES CORNERS FAIR      46   9  22 W24G33    29.74F
BELEN          FAIR      46  17  31 S8        29.80F
SOCORRO        FAIR      48  18  30 S14G25    29.81F

$$
NMZ524>526-539-540-162100-
SOUTHCENTRAL MOUNTAINS

CITY           SKY/WX    TMP DP  RH WIND       PRES   REMARKS
RUIDOSO        FAIR      46  14  27 NW12      29.81F

$$
NMZ527>531-162100-
NORTHEAST HIGHLANDS/NORTHEAST PLAINS

CITY           SKY/WX    TMP DP  RH WIND       PRES   REMARKS
LAS VEGAS      FAIR      58   5  12 S14       29.66F
RATON          FAIR      66   3   8 E12G20    29.63F
CLAYTON        FAIR      52  13  21 S22       29.66F

$$
NMZ532>537-162100-
EASTCENTRAL PLAINS

CITY           SKY/WX    TMP DP  RH WIND       PRES   REMARKS
SANTA ROSA     FAIR      58  12  16 S17G25    29.67F
TUCUMCARI      FAIR      59  14  17 S23       29.67F
CANNON AFB     FAIR      55  15  20 S17       29.75F
CLOVIS AIRPORT FAIR      57  18  21 SW15      29.74F

$$
NMZ028-029-538-162100-
SOUTHEAST PLAINS

CITY           SKY/WX    TMP DP  RH WIND       PRES   REMARKS
ROSWELL        FAIR      57  22  25 S15       29.74F
ARTESIA        FAIR      59  16  18 SW17      29.75F
CARLSBAD       FAIR      57  20  23 SE8       29.76F
HOBBS          SUNNY     55  23  28 S24G30    29.80F


$$




USA.gov is the U.S. government's official web portal to all federal, state and local government web resources and services.